Hoquiam, WA
on Sunday, December 16, 2012

Sunday
Previous Day Next Day
Daily Summary
 ActualAverageRecord
Temperature
Mean Temperature °F 41°F  
Max Temperature 48°F 46°F 56°F (1976)
Min Temperature 37°F 37°F 16°F (1964)
Degree Days
Heating Degree Days 22 24  
Month to date heating degree days 371  
Cooling Degree Days 0 0  
Month to date cooling degree days 0  
Year to date cooling degree days 23  
Moisture
Dew Point 39°F   
Average Humidity 92    
Maximum Humidity 100    
Minimum Humidity 71    
Precipitation
Precipitation 1.36 in 0.31 in 2.76 in (2001)
Month to date precipitation 5.18  
Year to date precipitation 62.77  
Wind
Wind Speed 12 mph   
Max Wind Speed 26 mph   
Max Gust Speed 34 mph   
Visibility 7 miles   
Events Rain   

Key: T is trace of precipitation, MM is missing value
Source: NWS Daily Summary
Time(PST)TemperatureDew PointHumidity Pressure Visibility Wind DirectionWind SpeedGust SpeedPrecipitationEvents Conditions
12:53 AM 39.9°F 36.0°F 86% 29.74 in 10.0 miles Calm Calm - 0.01 in   Mostly Cloudy
1:53 AM 42.1°F 36.0°F 79% 29.74 in 10.0 miles SSW 16.1 mph - 0.00 in   Mostly Cloudy
2:53 AM 44.1°F 36.0°F 73% 29.75 in 10.0 miles WSW 12.7 mph - N/A   Scattered Clouds
3:53 AM 44.1°F 35.1°F 71% 29.74 in 10.0 miles WSW 10.4 mph - N/A   Mostly Cloudy
4:53 AM 44.6°F 35.6°F 71% 29.73 in 10.0 miles WSW 6.9 mph - N/A   Mostly Cloudy
5:53 AM 39.0°F 37.0°F 93% 29.75 in 9.0 miles East 6.9 mph - 0.01 in Rain Light Rain
6:53 AM 39.0°F 37.0°F 93% 29.74 in 8.0 miles ENE 5.8 mph - 0.05 in Rain Light Rain
7:02 AM 39.2°F 37.4°F 93% 29.72 in 6.0 miles NE 6.9 mph - 0.02 in Rain Light Rain
7:12 AM 39.2°F 37.4°F 93% 29.72 in 10.0 miles Variable 3.5 mph - 0.02 in Rain Light Rain
7:53 AM 39.9°F 37.9°F 93% 29.73 in 10.0 miles East 6.9 mph - 0.02 in   Overcast
8:25 AM 39.2°F 37.4°F 93% 29.70 in 10.0 miles East 5.8 mph - 0.01 in Rain Light Rain
8:53 AM 41.0°F 37.9°F 89% 29.71 in 9.0 miles East 5.8 mph - 0.03 in Rain Light Rain
9:53 AM 39.9°F 37.0°F 89% 29.69 in 7.0 miles East 12.7 mph - 0.04 in Rain Light Rain
10:53 AM 39.0°F 36.0°F 89% 29.66 in 10.0 miles ENE 10.4 mph - 0.03 in Rain Light Rain
11:34 AM 39.2°F 37.4°F 93% 29.60 in 10.0 miles East 13.8 mph - 0.02 in Rain Light Rain
11:50 AM 39.2°F 37.4°F 93% 29.59 in 10.0 miles East 16.1 mph - 0.03 in Rain Light Rain
11:53 AM 39.0°F 36.0°F 89% 29.60 in 10.0 miles East 13.8 mph - 0.03 in Rain Light Rain
12:13 PM 37.4°F 35.6°F 93% 29.56 in 10.0 miles ENE 13.8 mph - 0.00 in Rain Light Rain
12:35 PM 37.4°F 35.6°F 93% 29.53 in 10.0 miles ENE 15.0 mph - 0.01 in Rain Light Rain
12:53 PM 37.9°F 37.0°F 97% 29.52 in 10.0 miles ENE 15.0 mph - 0.01 in Rain Light Rain
1:02 PM 37.4°F 37.4°F 100% 29.49 in 10.0 miles ENE 13.8 mph - 0.00 in Rain Light Rain
1:34 PM 37.4°F 35.6°F 93% 29.43 in 7.0 miles ENE 15.0 mph - 0.03 in Rain Light Rain
1:53 PM 37.9°F 36.0°F 93% 29.41 in 9.0 miles ENE 16.1 mph 23.0 mph 0.05 in Rain Light Rain
2:02 PM 37.4°F 35.6°F 93% 29.38 in 7.0 miles ENE 17.3 mph 25.3 mph 0.01 in Rain Light Rain
2:24 PM 37.4°F 35.6°F 93% 29.35 in 4.0 miles ENE 16.1 mph - 0.09 in Rain Rain
2:41 PM 37.4°F 35.6°F 93% 29.31 in 5.0 miles ENE 16.1 mph - 0.14 in Rain Light Rain
2:53 PM 37.9°F 36.0°F 93% 29.30 in 5.0 miles ENE 13.8 mph - 0.15 in Rain Light Rain
3:19 PM 37.4°F 35.6°F 93% 29.23 in 2.5 miles NE 20.7 mph 26.5 mph 0.04 in Rain Light Rain
3:36 PM 37.4°F 37.4°F 100% 29.21 in 3.0 miles ENE 18.4 mph 29.9 mph 0.07 in Rain Light Rain
3:42 PM 37.4°F 37.4°F 100% 29.20 in 2.5 miles ENE 19.6 mph 28.8 mph 0.07 in Rain Light Rain
3:53 PM 39.0°F 37.0°F 93% 29.19 in 2.0 miles ENE 20.7 mph - 0.08 in Rain Light Rain
4:04 PM 39.2°F 37.4°F 93% 29.15 in 2.5 miles ENE 17.3 mph - 0.02 in Rain Light Rain
4:28 PM 37.4°F 37.4°F 100% 29.11 in 3.0 miles ENE 20.7 mph 29.9 mph 0.04 in Rain Light Rain
4:53 PM 37.9°F 37.0°F 97% 29.08 in 2.5 miles ENE 21.9 mph 28.8 mph 0.09 in Rain Rain
5:02 PM 37.4°F 37.4°F 100% 29.06 in 4.0 miles ENE 21.9 mph 29.9 mph 0.02 in Rain Rain
5:09 PM 39.2°F 37.4°F 93% 29.05 in 3.0 miles ENE 20.7 mph 31.1 mph 0.05 in Rain Rain
5:53 PM 39.9°F 39.0°F 97% 29.04 in 3.0 miles North 10.4 mph 23.0 mph 0.25 in Rain Rain
6:00 PM 39.2°F 39.2°F 100% 29.03 in 2.5 miles Variable 5.8 mph 19.6 mph N/A Rain Rain
6:06 PM 39.2°F 39.2°F 100% 29.02 in 3.0 miles NNE 10.4 mph 17.3 mph 0.06 in Rain Rain
6:15 PM 39.2°F 37.4°F 93% 29.02 in 6.0 miles NNE 6.9 mph 17.3 mph 0.07 in Rain Light Rain
6:53 PM 39.0°F 37.9°F 96% 29.00 in 4.0 miles NE 10.4 mph - 0.24 in Rain Rain
7:18 PM 39.2°F 39.2°F 100% 28.99 in 4.0 miles North 4.6 mph - 0.04 in Rain Rain
7:46 PM 48.2°F 46.4°F 93% 28.99 in 9.0 miles South 21.9 mph 27.6 mph 0.09 in   Overcast
7:53 PM 48.9°F 46.0°F 90% 29.00 in 5.0 miles South 25.3 mph 31.1 mph 0.11 in Rain Light Rain
8:07 PM 46.4°F 44.6°F 93% 28.99 in 10.0 miles South 21.9 mph 31.1 mph 0.01 in Rain Light Rain
8:53 PM 48.0°F 44.1°F 86% 29.00 in 10.0 miles South 16.1 mph 24.2 mph 0.01 in   Overcast
9:53 PM 48.0°F 45.0°F 89% 28.96 in 7.0 miles South 13.8 mph 24.2 mph 0.05 in Rain Light Rain
10:25 PM 48.2°F 44.6°F 87% 28.92 in 5.0 miles South 17.3 mph 23.0 mph 0.03 in Rain Light Rain
10:49 PM 46.4°F 42.8°F 87% 28.92 in 10.0 miles South 23.0 mph 34.5 mph 0.06 in   Overcast
10:53 PM 46.9°F 43.0°F 86% 28.93 in 9.0 miles South 26.5 mph 33.4 mph 0.06 in   Overcast
11:27 PM 46.4°F 44.6°F 93% 28.90 in 4.0 miles SSE 18.4 mph 33.4 mph 0.01 in   Overcast
11:48 PM 46.4°F 44.6°F 93% 28.88 in 4.0 miles South 16.1 mph 21.9 mph 0.04 in Rain Light Rain
11:53 PM 46.9°F 45.0°F 93% 28.89 in 4.0 miles South 18.4 mph 21.9 mph 0.04 in Rain Light Rain
Moon Phase
Dec. 16 Dec. 20 Dec. 28 Jan. 04 Jan. 11
Sunrise:07:55 AM (PST) Moon Rise:10:20 AM (PST)12/16
Sunset:04:27 PM (PST) Moon Set:09:02 PM (PST)12/16

Copyright © 2014 The Weather Underground, Inc.